Time,TemperatureF,DewpointF,PressureIn,WindDirection,WindDirectionDegrees,WindSpeedMPH,WindSpeedGustMPH,Humidity,HourlyPrecipIn,Conditions,Clouds,dailyrainin,SoftwareType,DateUTC
2013-09-06 00:00:00,69.4,63.0,30.01,South,172,1.2,1.2,80,0.00,,SKC,0.00,WeatherDisplay:10.37,2013-09-06 05:00:00,
2013-09-06 00:05:00,69.5,62.3,30.01,SE,124,3.5,3.5,78,0.00,,SKC,0.00,WeatherDisplay:10.37,2013-09-06 05:05:00,
2013-09-06 00:10:00,69.6,62.4,30.01,South,172,1.2,1.2,78,0.00,,SKC,0.00,WeatherDisplay:10.37,2013-09-06 05:10:00,
2013-09-06 00:15:00,69.7,62.2,30.00,SSE,157,3.5,3.5,77,0.00,,SKC,0.00,WeatherDisplay:10.37,2013-09-06 05:15:00,
2013-09-06 00:20:00,69.8,61.9,30.01,SE,134,4.6,4.6,76,0.00,,SKC,0.00,WeatherDisplay:10.37,2013-09-06 05:20:00,
2013-09-06 00:25:00,70.0,61.7,30.01,ESE,110,3.5,3.5,75,0.00,,SKC,0.00,WeatherDisplay:10.37,2013-09-06 05:25:00,
2013-09-06 00:30:00,70.0,61.7,30.01,SE,124,4.6,4.6,75,0.00,,SKC,0.00,WeatherDisplay:10.37,2013-09-06 05:30:00,
2013-09-06 00:35:00,69.8,61.5,30.01,SE,124,3.5,3.5,75,0.00,,SKC,0.00,WeatherDisplay:10.37,2013-09-06 05:35:00,
2013-09-06 00:40:00,69.6,61.3,30.01,SE,136,3.5,3.5,75,0.00,,SKC,0.00,WeatherDisplay:10.37,2013-09-06 05:40:00,
2013-09-06 00:45:00,69.8,60.8,30.01,SE,133,4.6,4.6,73,0.00,,SKC,0.00,WeatherDisplay:10.37,2013-09-06 05:45:00,
2013-09-06 00:50:00,69.9,60.8,30.01,ESE,115,3.5,3.5,73,0.00,,SKC,0.00,WeatherDisplay:10.37,2013-09-06 05:50:00,
2013-09-06 00:55:00,69.9,60.8,30.01,SE,125,2.3,2.3,73,0.00,,SKC,0.00,WeatherDisplay:10.37,2013-09-06 05:55:00,
2013-09-06 01:00:00,69.8,60.8,30.02,ESE,103,1.2,1.2,73,0.00,,SKC,0.00,WeatherDisplay:10.37,2013-09-06 06:00:00,
2013-09-06 01:05:00,69.8,60.8,30.02,ESE,102,1.2,1.2,73,0.00,,SKC,0.00,WeatherDisplay:10.37,2013-09-06 06:05:00,
2013-09-06 01:10:00,69.8,60.4,30.02,ESE,107,2.3,2.3,72,0.00,,SKC,0.00,WeatherDisplay:10.37,2013-09-06 06:10:00,
2013-09-06 01:15:00,70.0,60.6,30.02,ESE,122,2.3,2.3,72,0.00,,SKC,0.00,WeatherDisplay:10.37,2013-09-06 06:15:00,
2013-09-06 01:20:00,70.1,60.7,30.02,East,101,2.3,2.3,72,0.00,,SKC,0.00,WeatherDisplay:10.37,2013-09-06 06:20:00,
2013-09-06 01:25:00,70.1,60.7,30.02,ESE,113,1.2,1.2,72,0.00,,SKC,0.00,WeatherDisplay:10.37,2013-09-06 06:25:00,
2013-09-06 01:30:00,70.1,60.7,30.02,ESE,122,2.1,2.1,72,0.00,,SKC,0.00,WeatherDisplay:10.37,2013-09-06 06:30:00,
2013-09-06 01:35:00,70.1,61.0,30.02,ESE,116,1.2,1.2,73,0.00,,SKC,0.00,WeatherDisplay:10.37,2013-09-06 06:35:00,
2013-09-06 01:40:00,70.1,61.0,30.02,SE,137,3.5,3.5,73,0.00,,SKC,0.00,WeatherDisplay:10.37,2013-09-06 06:40:00,
2013-09-06 01:45:00,70.2,61.1,30.02,SE,136,3.5,3.5,73,0.00,,SKC,0.00,WeatherDisplay:10.37,2013-09-06 06:45:00,
2013-09-06 01:51:00,70.3,61.2,30.02,SE,131,2.3,2.3,73,0.00,,SKC,0.00,WeatherDisplay:10.37,2013-09-06 06:51:00,
2013-09-06 01:56:00,70.3,61.2,30.02,SSE,151,2.3,2.3,73,0.00,,SKC,0.00,WeatherDisplay:10.37,2013-09-06 06:56:00,
2013-09-06 02:01:00,70.2,61.5,30.02,SE,139,2.1,2.1,74,0.00,,SKC,0.00,WeatherDisplay:10.37,2013-09-06 07:01:00,
2013-09-06 02:06:00,70.0,61.3,30.01,ESE,113,2.3,2.3,74,0.00,,SKC,0.00,WeatherDisplay:10.37,2013-09-06 07:06:00,
2013-09-06 02:11:00,69.8,61.5,30.02,SE,139,1.2,0.0,75,0.00,,SKC,0.00,WeatherDisplay:10.37,2013-09-06 07:11:00,
2013-09-06 02:16:00,69.6,61.3,30.02,SE,135,2.3,2.3,75,0.00,,SKC,0.00,WeatherDisplay:10.37,2013-09-06 07:16:00,
2013-09-06 02:21:00,69.4,61.5,30.01,SE,127,1.2,0.0,76,0.00,,SKC,0.00,WeatherDisplay:10.37,2013-09-06 07:21:00,
2013-09-06 02:26:00,69.2,61.3,30.01,SE,136,2.3,2.3,76,0.00,,SKC,0.00,WeatherDisplay:10.37,2013-09-06 07:26:00,
2013-09-06 02:31:00,69.2,61.7,30.01,ESE,119,1.2,1.2,77,0.00,,SKC,0.00,WeatherDisplay:10.37,2013-09-06 07:31:00,
2013-09-06 02:36:00,69.0,61.5,30.01,ESE,119,2.3,2.3,77,0.00,,SKC,0.00,WeatherDisplay:10.37,2013-09-06 07:36:00,
2013-09-06 02:41:00,69.0,61.5,30.01,East,101,1.2,1.2,77,0.00,,SKC,0.00,WeatherDisplay:10.37,2013-09-06 07:41:00,
2013-09-06 02:46:00,68.8,61.7,30.01,SE,124,1.2,0.0,78,0.00,,SKC,0.00,WeatherDisplay:10.37,2013-09-06 07:46:00,
2013-09-06 02:51:00,68.7,61.6,30.01,SE,126,2.3,2.3,78,0.00,,SKC,0.00,WeatherDisplay:10.37,2013-09-06 07:51:00,
2013-09-06 02:56:00,68.7,61.6,30.01,ESE,110,3.5,3.5,78,0.00,,SKC,0.00,WeatherDisplay:10.37,2013-09-06 07:56:00,
2013-09-06 03:01:00,68.7,61.6,30.01,SE,126,3.2,3.2,78,0.00,,SKC,0.00,WeatherDisplay:10.37,2013-09-06 08:01:00,
2013-09-06 03:06:00,68.7,61.9,30.01,ESE,105,2.3,2.3,79,0.00,,SKC,0.00,WeatherDisplay:10.37,2013-09-06 08:06:00,
2013-09-06 03:11:00,68.6,61.8,30.01,ESE,104,2.3,2.3,79,0.00,,SKC,0.00,WeatherDisplay:10.37,2013-09-06 08:11:00,
2013-09-06 03:16:00,68.5,61.7,30.01,ESE,118,2.3,2.3,79,0.00,,SKC,0.00,WeatherDisplay:10.37,2013-09-06 08:16:00,
2013-09-06 03:21:00,68.2,61.8,30.01,ESE,122,3.5,3.5,80,0.00,,SKC,0.00,WeatherDisplay:10.37,2013-09-06 08:21:00,
2013-09-06 03:26:00,68.2,61.8,30.01,ESE,120,2.3,2.3,80,0.00,,SKC,0.00,WeatherDisplay:10.37,2013-09-06 08:26:00,
2013-09-06 03:31:00,68.2,61.8,30.01,ESE,117,4.6,4.6,80,0.00,,SKC,0.00,WeatherDisplay:10.37,2013-09-06 08:31:00,
2013-09-06 03:36:00,68.1,61.7,30.01,SE,143,3.2,3.2,80,0.00,,SKC,0.00,WeatherDisplay:10.37,2013-09-06 08:36:00,
2013-09-06 03:41:00,68.2,61.8,30.01,SE,125,3.5,3.5,80,0.00,,SKC,0.00,WeatherDisplay:10.37,2013-09-06 08:41:00,
2013-09-06 03:46:00,68.1,61.7,30.01,ESE,108,3.5,3.5,80,0.00,,SKC,0.00,WeatherDisplay:10.37,2013-09-06 08:46:00,
2013-09-06 03:51:00,67.9,61.9,30.01,ESE,108,3.5,3.5,81,0.00,,SKC,0.00,WeatherDisplay:10.37,2013-09-06 08:51:00,
2013-09-06 03:56:00,67.9,61.9,30.01,ESE,104,3.5,3.5,81,0.00,,SKC,0.00,WeatherDisplay:10.37,2013-09-06 08:56:00,
2013-09-06 04:01:00,67.8,61.8,30.01,ESE,113,3.5,3.5,81,0.00,,SKC,0.00,WeatherDisplay:10.37,2013-09-06 09:01:00,
2013-09-06 04:06:00,67.7,62.0,30.01,SE,129,1.2,1.2,82,0.00,,SKC,0.00,WeatherDisplay:10.37,2013-09-06 09:06:00,
2013-09-06 04:11:00,67.5,61.8,30.00,SE,130,2.3,2.3,82,0.00,,SKC,0.00,WeatherDisplay:10.37,2013-09-06 09:11:00,
2013-09-06 04:16:00,67.4,61.7,30.00,ESE,117,3.2,3.2,82,0.00,,SKC,0.00,WeatherDisplay:10.37,2013-09-06 09:16:00,
2013-09-06 04:21:00,67.3,62.0,30.00,SE,126,2.3,2.3,83,0.00,,SKC,0.00,WeatherDisplay:10.37,2013-09-06 09:21:00,
2013-09-06 04:26:00,67.3,62.0,30.01,ESE,115,2.3,2.3,83,0.00,,SKC,0.00,WeatherDisplay:10.37,2013-09-06 09:26:00,
2013-09-06 04:31:00,67.1,61.8,30.01,ESE,122,2.3,2.3,83,0.00,,SKC,0.00,WeatherDisplay:10.37,2013-09-06 09:31:00,
2013-09-06 04:36:00,67.1,61.8,30.01,SE,129,2.3,2.3,83,0.00,,SKC,0.00,WeatherDisplay:10.37,2013-09-06 09:36:00,
2013-09-06 04:41:00,67.1,61.8,30.01,ESE,119,2.3,2.3,83,0.00,,SKC,0.00,WeatherDisplay:10.37,2013-09-06 09:41:00,
2013-09-06 04:46:00,67.1,61.8,30.00,ESE,123,2.3,2.3,83,0.00,,SKC,0.00,WeatherDisplay:10.37,2013-09-06 09:46:00,
2013-09-06 04:51:00,67.1,61.8,30.00,ESE,119,2.3,2.3,83,0.00,,SKC,0.00,WeatherDisplay:10.37,2013-09-06 09:51:00,
2013-09-06 04:56:00,67.1,61.8,30.00,ESE,122,1.2,1.2,83,0.00,,SKC,0.00,WeatherDisplay:10.37,2013-09-06 09:56:00,
2013-09-06 05:01:00,67.1,61.8,30.00,SE,125,1.2,1.2,83,0.00,,SKC,0.00,WeatherDisplay:10.37,2013-09-06 10:01:00,
2013-09-06 05:06:00,66.9,61.9,30.00,ESE,109,2.3,2.3,84,0.00,,SKC,0.00,WeatherDisplay:10.37,2013-09-06 10:06:00,
2013-09-06 05:11:00,66.8,61.8,30.00,ESE,115,1.2,1.2,84,0.00,,SKC,0.00,WeatherDisplay:10.37,2013-09-06 10:11:00,
2013-09-06 05:16:00,66.7,61.7,30.00,ESE,113,1.2,1.2,84,0.00,,SKC,0.00,WeatherDisplay:10.37,2013-09-06 10:16:00,
2013-09-06 05:21:00,66.6,61.9,30.00,ESE,115,1.2,1.2,85,0.00,,SKC,0.00,WeatherDisplay:10.37,2013-09-06 10:21:00,
2013-09-06 05:26:00,66.6,61.9,30.00,ESE,106,2.3,2.3,85,0.00,,SKC,0.00,WeatherDisplay:10.37,2013-09-06 10:26:00,
2013-09-06 05:31:00,66.6,61.9,30.00,ESE,115,2.3,2.3,85,0.00,,SKC,0.00,WeatherDisplay:10.37,2013-09-06 10:31:00,
2013-09-06 05:36:00,66.7,62.0,30.00,ESE,110,2.3,2.3,85,0.00,,SKC,0.00,WeatherDisplay:10.37,2013-09-06 10:36:00,
2013-09-06 05:41:00,66.7,61.7,30.00,ESE,117,1.2,1.2,84,0.00,,SKC,0.00,WeatherDisplay:10.37,2013-09-06 10:41:00,
2013-09-06 05:46:00,66.4,61.8,30.00,ESE,117,1.2,1.2,85,0.00,,SKC,0.00,WeatherDisplay:10.37,2013-09-06 10:46:00,
2013-09-06 05:51:00,66.3,61.7,30.00,ESE,116,1.1,0.0,85,0.00,,SKC,0.00,WeatherDisplay:10.37,2013-09-06 10:51:00,
2013-09-06 05:56:00,66.3,61.7,30.01,ESE,117,0.0,0.0,85,0.00,,SKC,0.00,WeatherDisplay:10.37,2013-09-06 10:56:00,
2013-09-06 06:01:00,66.2,61.9,30.00,ESE,116,1.2,1.2,86,0.00,,SKC,0.00,WeatherDisplay:10.37,2013-09-06 11:01:00,
2013-09-06 06:06:00,66.1,61.8,30.01,ESE,116,1.1,1.1,86,0.00,,SKC,0.00,WeatherDisplay:10.37,2013-09-06 11:06:00,
2013-09-06 06:11:00,66.1,61.8,30.01,ESE,116,1.2,1.2,86,0.00,,SKC,0.00,WeatherDisplay:10.37,2013-09-06 11:11:00,
2013-09-06 06:16:00,66.0,61.7,30.01,ESE,114,1.2,1.2,86,0.00,,SKC,0.00,WeatherDisplay:10.37,2013-09-06 11:16:00,
2013-09-06 06:21:00,66.0,61.7,30.00,East,90,2.3,2.3,86,0.00,,SKC,0.00,WeatherDisplay:10.37,2013-09-06 11:21:00,
2013-09-06 06:26:00,65.9,61.6,30.01,ESE,105,3.5,3.5,86,0.00,,SKC,0.00,WeatherDisplay:10.37,2013-09-06 11:26:00,
2013-09-06 06:31:00,65.9,61.9,30.01,ESE,115,3.5,3.5,87,0.00,,SKC,0.00,WeatherDisplay:10.37,2013-09-06 11:31:00,
2013-09-06 06:36:00,66.0,61.7,30.01,East,95,3.5,3.5,86,0.00,,SKC,0.00,WeatherDisplay:10.37,2013-09-06 11:36:00,
2013-09-06 06:41:00,66.4,62.1,30.01,ESE,106,3.5,3.5,86,0.00,,SKC,0.00,WeatherDisplay:10.37,2013-09-06 11:41:00,
2013-09-06 06:46:00,66.6,61.9,30.01,ESE,107,3.5,3.5,85,0.00,,SKC,0.00,WeatherDisplay:10.37,2013-09-06 11:46:00,
2013-09-06 06:51:00,66.5,61.8,30.01,ESE,113,2.3,2.3,85,0.00,,SKC,0.00,WeatherDisplay:10.37,2013-09-06 11:51:00,
2013-09-06 06:56:00,66.4,61.8,30.01,SE,128,2.3,2.3,85,0.00,,SKC,0.00,WeatherDisplay:10.37,2013-09-06 11:56:00,
2013-09-06 07:01:00,66.4,61.8,30.01,SE,141,3.5,3.5,85,0.00,,SKC,0.00,WeatherDisplay:10.37,2013-09-06 12:01:00,
2013-09-06 07:06:00,66.3,61.7,30.01,ESE,123,2.3,2.3,85,0.00,,SKC,0.00,WeatherDisplay:10.37,2013-09-06 12:06:00,
2013-09-06 07:11:00,66.1,61.8,30.01,ESE,117,2.3,2.3,86,0.00,,SKC,0.00,WeatherDisplay:10.37,2013-09-06 12:11:00,
2013-09-06 07:16:00,66.1,61.8,30.01,East,94,2.3,2.3,86,0.00,,SKC,0.00,WeatherDisplay:10.37,2013-09-06 12:16:00,
2013-09-06 07:21:00,65.8,61.5,30.01,SE,127,2.3,2.3,86,0.00,,SKC,0.00,WeatherDisplay:10.37,2013-09-06 12:21:00,
2013-09-06 07:27:00,66.0,61.7,30.01,ESE,113,4.6,4.6,86,0.00,,SKC,0.00,WeatherDisplay:10.37,2013-09-06 12:27:00,
2013-09-06 07:31:00,66.4,61.8,30.01,East,101,6.4,6.4,85,0.00,,SKC,0.00,WeatherDisplay:10.37,2013-09-06 12:31:00,
2013-09-06 07:37:00,66.9,61.9,30.01,ESE,107,5.8,5.8,84,0.00,,SKC,0.00,WeatherDisplay:10.37,2013-09-06 12:37:00,
2013-09-06 07:42:00,67.1,62.1,30.01,SE,138,5.8,5.8,84,0.00,,SKC,0.00,WeatherDisplay:10.37,2013-09-06 12:42:00,
2013-09-06 07:47:00,67.3,62.3,30.01,SE,144,4.6,4.6,84,0.00,,SKC,0.00,WeatherDisplay:10.37,2013-09-06 12:47:00,
2013-09-06 07:52:00,67.6,62.3,30.01,SE,131,5.8,5.8,83,0.00,,SKC,0.00,WeatherDisplay:10.37,2013-09-06 12:52:00,
2013-09-06 07:57:00,67.6,62.3,30.01,SE,143,4.6,4.6,83,0.00,,SKC,0.00,WeatherDisplay:10.37,2013-09-06 12:57:00,
2013-09-06 08:02:00,67.5,62.5,30.01,ESE,111,4.6,4.6,84,0.00,,SKC,0.00,WeatherDisplay:10.37,2013-09-06 13:02:00,
2013-09-06 08:07:00,67.5,62.5,30.01,SE,135,5.8,5.8,84,0.00,,SKC,0.00,WeatherDisplay:10.37,2013-09-06 13:07:00,
2013-09-06 08:12:00,67.6,62.6,30.01,SE,125,4.6,4.6,84,0.00,,SKC,0.00,WeatherDisplay:10.37,2013-09-06 13:12:00,
2013-09-06 08:17:00,67.8,62.8,30.01,SSE,148,5.8,5.8,84,0.00,,SKC,0.00,WeatherDisplay:10.37,2013-09-06 13:17:00,
2013-09-06 08:22:00,68.4,63.0,30.01,SE,129,4.6,4.6,83,0.00,,SKC,0.00,WeatherDisplay:10.37,2013-09-06 13:22:00,
2013-09-06 08:27:00,69.1,63.0,30.01,SE,131,6.9,6.9,81,0.00,,SKC,0.00,WeatherDisplay:10.37,2013-09-06 13:27:00,
2013-09-06 08:32:00,69.6,63.5,30.01,SE,134,5.8,5.8,81,0.00,,SKC,0.00,WeatherDisplay:10.37,2013-09-06 13:32:00,
2013-09-06 08:37:00,70.3,63.5,30.01,SE,146,7.4,7.4,79,0.00,,SKC,0.00,WeatherDisplay:10.37,2013-09-06 13:37:00,
2013-09-06 08:42:00,70.6,63.8,30.01,SE,136,5.3,5.3,79,0.00,,SKC,0.00,WeatherDisplay:10.37,2013-09-06 13:42:00,
2013-09-06 08:47:00,70.4,63.2,30.00,SSE,155,6.9,6.9,78,0.00,,SKC,0.00,WeatherDisplay:10.37,2013-09-06 13:47:00,
2013-09-06 08:52:00,70.0,63.2,30.01,SSE,167,5.8,5.8,79,0.00,,SKC,0.00,WeatherDisplay:10.37,2013-09-06 13:52:00,
2013-09-06 08:57:00,69.5,63.4,30.01,SSE,167,4.6,4.6,81,0.00,,SKC,0.00,WeatherDisplay:10.37,2013-09-06 13:57:00,
2013-09-06 09:02:00,69.3,63.2,30.00,SSE,161,3.5,3.5,81,0.00,,SKC,0.00,WeatherDisplay:10.37,2013-09-06 14:02:00,
2013-09-06 09:07:00,69.2,63.5,30.00,SE,144,4.2,4.2,82,0.00,,SKC,0.00,WeatherDisplay:10.37,2013-09-06 14:07:00,
2013-09-06 09:12:00,70.2,64.1,30.00,SSE,148,6.9,6.9,81,0.00,,SKC,0.00,WeatherDisplay:10.37,2013-09-06 14:12:00,
2013-09-06 09:17:00,70.8,64.3,30.00,SSW,198,6.9,6.9,80,0.00,,SKC,0.00,WeatherDisplay:10.37,2013-09-06 14:17:00,
2013-09-06 09:22:00,71.5,64.6,30.00,SSE,163,6.9,6.9,79,0.00,,SKC,0.00,WeatherDisplay:10.37,2013-09-06 14:22:00,
2013-09-06 09:27:00,71.9,64.7,30.00,SSE,148,7.4,7.4,78,0.00,,SKC,0.00,WeatherDisplay:10.37,2013-09-06 14:27:00,
2013-09-06 09:32:00,72.6,65.7,30.00,SSE,150,4.6,4.6,79,0.00,,SKC,0.00,WeatherDisplay:10.37,2013-09-06 14:32:00,
2013-09-06 09:37:00,73.5,65.8,30.00,SSE,152,7.4,7.4,77,0.00,,SKC,0.00,WeatherDisplay:10.37,2013-09-06 14:37:00,
2013-09-06 09:42:00,74.1,66.0,30.00,South,191,4.6,4.6,76,0.00,,SKC,0.00,WeatherDisplay:10.37,2013-09-06 14:42:00,
2013-09-06 09:47:00,74.9,66.1,30.00,SE,143,5.8,5.8,74,0.00,,SKC,0.00,WeatherDisplay:10.37,2013-09-06 14:47:00,
2013-09-06 09:52:00,75.5,66.2,30.00,SSE,152,5.3,5.3,73,0.00,,SKC,0.00,WeatherDisplay:10.37,2013-09-06 14:52:00,
2013-09-06 09:57:00,76.2,66.9,29.99,SE,146,5.8,5.8,73,0.00,,SKC,0.00,WeatherDisplay:10.37,2013-09-06 14:57:00,
2013-09-06 10:02:00,76.3,67.0,29.99,SSE,162,4.2,4.2,73,0.00,,SKC,0.00,WeatherDisplay:10.37,2013-09-06 15:02:00,
2013-09-06 10:07:00,76.4,66.7,29.99,SSE,154,3.5,3.5,72,0.00,,SKC,0.00,WeatherDisplay:10.37,2013-09-06 15:07:00,
2013-09-06 10:12:00,77.7,68.0,29.99,SE,127,5.8,5.8,72,0.00,,SKC,0.00,WeatherDisplay:10.37,2013-09-06 15:12:00,
2013-09-06 10:17:00,78.6,67.6,29.99,SSE,158,6.9,6.9,69,0.00,,SKC,0.00,WeatherDisplay:10.37,2013-09-06 15:17:00,
2013-09-06 10:22:00,79.4,67.5,29.99,SSW,207,7.4,7.4,67,0.00,,SKC,0.00,WeatherDisplay:10.37,2013-09-06 15:22:00,
2013-09-06 10:27:00,79.8,67.0,29.99,SE,133,10.6,10.6,65,0.00,,SKC,0.00,WeatherDisplay:10.37,2013-09-06 15:27:00,
2013-09-06 10:32:00,79.4,67.0,29.99,SE,141,11.7,11.7,66,0.00,,SKC,0.00,WeatherDisplay:10.37,2013-09-06 15:32:00,
2013-09-06 10:37:00,79.0,66.7,29.99,SSE,152,6.9,6.9,66,0.00,,SKC,0.00,WeatherDisplay:10.37,2013-09-06 15:37:00,
2013-09-06 10:42:00,78.6,66.7,29.99,South,176,9.5,9.5,67,0.00,,SKC,0.00,WeatherDisplay:10.37,2013-09-06 15:42:00,
2013-09-06 10:47:00,78.6,67.6,29.99,SE,142,4.6,4.6,69,0.00,,SKC,0.00,WeatherDisplay:10.37,2013-09-06 15:47:00,
2013-09-06 10:52:00,79.4,67.5,29.98,SE,135,9.5,9.5,67,0.00,,SKC,0.00,WeatherDisplay:10.37,2013-09-06 15:52:00,
2013-09-06 10:57:00,80.6,67.7,29.98,ESE,122,8.5,8.5,65,0.00,,SKC,0.00,WeatherDisplay:10.37,2013-09-06 15:57:00,
2013-09-06 11:02:00,81.2,67.4,29.98,SSE,152,9.2,9.2,63,0.00,,SKC,0.00,WeatherDisplay:10.37,2013-09-06 16:02:00,
2013-09-06 11:07:00,81.4,67.1,29.98,SSE,167,10.6,10.6,62,0.00,,SKC,0.00,WeatherDisplay:10.37,2013-09-06 16:07:00,
2013-09-06 11:12:00,81.9,67.6,29.98,SSW,199,10.6,10.6,62,0.00,,SKC,0.00,WeatherDisplay:10.37,2013-09-06 16:12:00,
2013-09-06 11:17:00,82.6,68.7,29.98,SSW,198,8.1,8.1,63,0.00,,SKC,0.00,WeatherDisplay:10.37,2013-09-06 16:17:00,
2013-09-06 11:22:00,83.0,68.2,29.98,SSE,158,11.7,11.7,61,0.00,,SKC,0.00,WeatherDisplay:10.37,2013-09-06 16:22:00,
2013-09-06 11:27:00,83.0,67.7,29.97,SSE,164,12.7,12.7,60,0.00,,SKC,0.00,WeatherDisplay:10.37,2013-09-06 16:27:00,
2013-09-06 11:32:00,83.3,68.4,29.97,South,172,11.7,11.7,61,0.00,,SKC,0.00,WeatherDisplay:10.37,2013-09-06 16:32:00,
2013-09-06 11:37:00,83.7,68.3,29.97,SSE,160,10.4,10.4,60,0.00,,SKC,0.00,WeatherDisplay:10.37,2013-09-06 16:37:00,
2013-09-06 11:42:00,84.0,68.1,29.97,SE,134,11.5,11.5,59,0.00,,SKC,0.00,WeatherDisplay:10.37,2013-09-06 16:42:00,
2013-09-06 11:47:00,84.3,68.4,29.97,SSE,163,9.5,9.5,59,0.00,,SKC,0.00,WeatherDisplay:10.37,2013-09-06 16:47:00,
2013-09-06 11:52:00,84.7,68.8,29.97,SE,143,11.5,11.5,59,0.00,,SKC,0.00,WeatherDisplay:10.37,2013-09-06 16:52:00,
2013-09-06 11:57:00,85.1,69.7,29.97,SE,131,12.7,12.7,60,0.00,,SKC,0.00,WeatherDisplay:10.37,2013-09-06 16:57:00,
2013-09-06 12:02:00,85.8,69.3,29.96,SE,142,6.9,6.9,58,0.00,,SKC,0.00,WeatherDisplay:10.37,2013-09-06 17:02:00,
2013-09-06 12:07:00,86.0,69.0,29.96,SSE,149,9.5,9.5,57,0.00,,SKC,0.00,WeatherDisplay:10.37,2013-09-06 17:07:00,
2013-09-06 12:12:00,86.0,69.0,29.95,South,180,11.7,11.7,57,0.00,,SKC,0.00,WeatherDisplay:10.37,2013-09-06 17:12:00,
2013-09-06 12:17:00,86.4,68.8,29.95,SSE,158,8.5,8.5,56,0.00,,SKC,0.00,WeatherDisplay:10.37,2013-09-06 17:17:00,
2013-09-06 12:22:00,86.8,69.2,29.95,SSE,150,13.8,13.8,56,0.00,,SKC,0.00,WeatherDisplay:10.37,2013-09-06 17:22:00,
2013-09-06 12:27:00,87.0,69.4,29.95,SE,136,10.6,10.6,56,0.00,,SKC,0.00,WeatherDisplay:10.37,2013-09-06 17:27:00,
2013-09-06 12:32:00,87.0,69.4,29.95,SE,130,11.7,11.7,56,0.00,,SKC,0.00,WeatherDisplay:10.37,2013-09-06 17:32:00,
2013-09-06 12:37:00,86.8,69.2,29.95,SE,132,11.7,11.7,56,0.00,,SKC,0.00,WeatherDisplay:10.37,2013-09-06 17:37:00,
2013-09-06 12:42:00,87.3,68.6,29.95,SSE,161,11.7,11.7,54,0.00,,SKC,0.00,WeatherDisplay:10.37,2013-09-06 17:42:00,
2013-09-06 12:47:00,87.6,69.4,29.94,SSW,210,9.5,9.5,55,0.00,,SKC,0.00,WeatherDisplay:10.37,2013-09-06 17:47:00,
2013-09-06 12:52:00,87.9,69.7,29.94,SE,136,11.7,11.7,55,0.00,,SKC,0.00,WeatherDisplay:10.37,2013-09-06 17:52:00,
2013-09-06 12:57:00,87.9,69.2,29.94,ESE,118,8.5,8.5,54,0.00,,SKC,0.00,WeatherDisplay:10.37,2013-09-06 17:57:00,
2013-09-06 13:02:00,88.1,68.8,29.94,SE,136,16.1,16.1,53,0.00,,SKC,0.00,WeatherDisplay:10.37,2013-09-06 18:02:00,
2013-09-06 13:07:00,88.3,69.0,29.94,South,179,8.5,8.5,53,0.00,,SKC,0.00,WeatherDisplay:10.37,2013-09-06 18:07:00,
2013-09-06 13:12:00,88.7,69.4,29.93,SE,143,15.0,15.0,53,0.00,,SKC,0.00,WeatherDisplay:10.37,2013-09-06 18:12:00,
2013-09-06 13:17:00,88.8,69.5,29.93,South,179,14.8,14.8,53,0.00,,SKC,0.00,WeatherDisplay:10.37,2013-09-06 18:17:00,
2013-09-06 13:22:00,89.0,69.1,29.93,South,187,12.7,12.7,52,0.00,,SKC,0.00,WeatherDisplay:10.37,2013-09-06 18:22:00,
2013-09-06 13:28:00,89.1,69.2,29.93,SE,138,14.8,14.8,52,0.00,,SKC,0.00,WeatherDisplay:10.37,2013-09-06 18:28:00,
2013-09-06 13:33:00,89.4,70.0,29.93,SSW,194,11.7,11.7,53,0.00,,SKC,0.00,WeatherDisplay:10.37,2013-09-06 18:33:00,
2013-09-06 13:38:00,89.5,69.0,29.92,ESE,122,13.8,13.8,51,0.00,,SKC,0.00,WeatherDisplay:10.37,2013-09-06 18:38:00,
2013-09-06 13:43:00,89.5,69.0,29.92,SSE,167,12.7,12.7,51,0.00,,SKC,0.00,WeatherDisplay:10.37,2013-09-06 18:43:00,
2013-09-06 13:48:00,89.5,69.0,29.92,SE,135,13.8,13.8,51,0.00,,SKC,0.00,WeatherDisplay:10.37,2013-09-06 18:48:00,
2013-09-06 13:53:00,89.9,68.2,29.92,SSE,163,14.8,14.8,49,0.00,,SKC,0.00,WeatherDisplay:10.37,2013-09-06 18:53:00,
2013-09-06 13:58:00,89.9,69.9,29.92,SE,131,13.8,13.8,52,0.00,,SKC,0.00,WeatherDisplay:10.37,2013-09-06 18:58:00,
2013-09-06 14:03:00,90.0,70.0,29.92,East,82,12.7,12.7,52,0.00,,SKC,0.00,WeatherDisplay:10.37,2013-09-06 19:03:00,
2013-09-06 14:08:00,90.0,70.0,29.91,South,172,11.7,11.7,52,0.00,,SKC,0.00,WeatherDisplay:10.37,2013-09-06 19:08:00,
2013-09-06 14:13:00,90.2,70.2,29.91,SSE,157,13.8,13.8,52,0.00,,SKC,0.00,WeatherDisplay:10.37,2013-09-06 19:13:00,
2013-09-06 14:18:00,90.6,70.6,29.91,South,179,7.4,7.4,52,0.00,,SKC,0.00,WeatherDisplay:10.37,2013-09-06 19:18:00,
2013-09-06 14:23:00,91.0,68.6,29.91,SSW,198,13.8,13.8,48,0.00,,SKC,0.00,WeatherDisplay:10.37,2013-09-06 19:23:00,
2013-09-06 14:28:00,90.5,69.3,29.90,SSW,193,12.7,12.7,50,0.00,,SKC,0.00,WeatherDisplay:10.37,2013-09-06 19:28:00,
2013-09-06 14:33:00,90.8,70.2,29.90,SE,139,11.7,11.7,51,0.00,,SKC,0.00,WeatherDisplay:10.37,2013-09-06 19:33:00,
2013-09-06 14:38:00,90.8,69.6,29.90,SSE,158,11.5,11.5,50,0.00,,SKC,0.00,WeatherDisplay:10.37,2013-09-06 19:38:00,
2013-09-06 14:43:00,91.1,69.9,29.90,SE,134,15.9,15.9,50,0.00,,SKC,0.00,WeatherDisplay:10.37,2013-09-06 19:43:00,
2013-09-06 14:48:00,91.1,69.9,29.89,SE,143,8.5,8.5,50,0.00,,SKC,0.00,WeatherDisplay:10.37,2013-09-06 19:48:00,
2013-09-06 14:53:00,91.5,68.4,29.89,South,188,12.7,12.7,47,0.00,,SKC,0.00,WeatherDisplay:10.37,2013-09-06 19:53:00,
2013-09-06 14:58:00,91.0,68.6,29.89,SE,138,15.0,15.0,48,0.00,,SKC,0.00,WeatherDisplay:10.37,2013-09-06 19:58:00,
2013-09-06 15:03:00,91.3,70.1,29.89,SE,141,13.8,13.8,50,0.00,,SKC,0.00,WeatherDisplay:10.37,2013-09-06 20:03:00,
2013-09-06 15:08:00,91.5,69.6,29.89,South,179,15.9,15.9,49,0.00,,SKC,0.00,WeatherDisplay:10.37,2013-09-06 20:08:00,
2013-09-06 15:13:00,91.6,69.1,29.89,South,177,13.8,13.8,48,0.00,,SKC,0.00,WeatherDisplay:10.37,2013-09-06 20:13:00,
2013-09-06 15:18:00,91.5,69.6,29.88,South,174,13.8,13.8,49,0.00,,SKC,0.00,WeatherDisplay:10.37,2013-09-06 20:18:00,
2013-09-06 15:23:00,91.3,68.9,29.88,SE,143,12.7,12.7,48,0.00,,SKC,0.00,WeatherDisplay:10.37,2013-09-06 20:23:00,
2013-09-06 15:28:00,91.3,69.5,29.88,SSE,162,13.8,13.8,49,0.00,,SKC,0.00,WeatherDisplay:10.37,2013-09-06 20:28:00,
2013-09-06 15:33:00,91.3,68.9,29.88,SE,146,18.4,18.4,48,0.00,,SKC,0.00,WeatherDisplay:10.37,2013-09-06 20:33:00,
2013-09-06 15:38:00,91.4,69.6,29.87,ESE,107,10.6,10.6,49,0.00,,SKC,0.00,WeatherDisplay:10.37,2013-09-06 20:38:00,
2013-09-06 15:43:00,91.8,69.3,29.88,SSW,197,12.7,12.7,48,0.00,,SKC,0.00,WeatherDisplay:10.37,2013-09-06 20:43:00,
2013-09-06 15:48:00,91.8,69.3,29.87,South,172,11.5,11.5,48,0.00,,SKC,0.00,WeatherDisplay:10.37,2013-09-06 20:48:00,
2013-09-06 15:53:00,91.9,68.8,29.87,ESE,121,13.8,13.8,47,0.00,,SKC,0.00,WeatherDisplay:10.37,2013-09-06 20:53:00,
2013-09-06 15:58:00,91.9,70.0,29.87,SE,146,10.4,10.4,49,0.00,,SKC,0.00,WeatherDisplay:10.37,2013-09-06 20:58:00,
2013-09-06 16:03:00,92.0,68.9,29.87,South,175,19.6,19.6,47,0.00,,SKC,0.00,WeatherDisplay:10.37,2013-09-06 21:03:00,
2013-09-06 16:08:00,92.1,69.0,29.86,SSE,167,15.0,15.0,47,0.00,,SKC,0.00,WeatherDisplay:10.37,2013-09-06 21:08:00,
2013-09-06 16:13:00,92.2,69.1,29.86,ESE,113,17.3,17.3,47,0.00,,SKC,0.00,WeatherDisplay:10.37,2013-09-06 21:13:00,
2013-09-06 16:18:00,92.3,68.5,29.87,SSE,156,13.8,13.8,46,0.00,,SKC,0.00,WeatherDisplay:10.37,2013-09-06 21:18:00,
2013-09-06 16:23:00,91.5,67.8,29.86,SSE,155,15.0,15.0,46,0.00,,SKC,0.00,WeatherDisplay:10.37,2013-09-06 21:23:00,
2013-09-06 16:28:00,91.1,69.3,29.86,SSE,166,13.8,13.8,49,0.00,,SKC,0.00,WeatherDisplay:10.37,2013-09-06 21:28:00,
2013-09-06 16:33:00,91.3,68.2,29.86,South,185,8.5,8.5,47,0.00,,SKC,0.00,WeatherDisplay:10.37,2013-09-06 21:33:00,
2013-09-06 16:38:00,91.7,69.8,29.86,SSE,153,13.8,13.8,49,0.00,,SKC,0.00,WeatherDisplay:10.37,2013-09-06 21:38:00,
2013-09-06 16:43:00,92.1,69.6,29.86,South,186,11.5,11.5,48,0.00,,SKC,0.00,WeatherDisplay:10.37,2013-09-06 21:43:00,
2013-09-06 16:48:00,91.9,70.0,29.86,SE,126,10.4,10.4,49,0.00,,SKC,0.00,WeatherDisplay:10.37,2013-09-06 21:48:00,
2013-09-06 16:53:00,91.6,70.3,29.86,ESE,114,8.1,8.1,50,0.00,,SKC,0.00,WeatherDisplay:10.37,2013-09-06 21:53:00,
2013-09-06 16:58:00,91.3,69.5,29.86,SSE,152,10.4,10.4,49,0.00,,SKC,0.00,WeatherDisplay:10.37,2013-09-06 21:58:00,
2013-09-06 17:03:00,91.6,69.7,29.85,SE,139,12.7,12.7,49,0.00,,SKC,0.00,WeatherDisplay:10.37,2013-09-06 22:03:00,
2013-09-06 17:08:00,91.6,69.7,29.85,ESE,118,12.7,12.7,49,0.00,,SKC,0.00,WeatherDisplay:10.37,2013-09-06 22:08:00,
2013-09-06 17:13:00,91.6,69.1,29.85,SSW,198,11.5,11.5,48,0.00,,SKC,0.00,WeatherDisplay:10.37,2013-09-06 22:13:00,
2013-09-06 17:18:00,91.4,69.6,29.85,SSW,211,11.7,11.7,49,0.00,,SKC,0.00,WeatherDisplay:10.37,2013-09-06 22:18:00,
2013-09-06 17:23:00,91.4,70.1,29.85,SE,128,10.6,10.6,50,0.00,,SKC,0.00,WeatherDisplay:10.37,2013-09-06 22:23:00,
2013-09-06 17:28:00,91.5,70.8,29.85,SSE,164,11.5,11.5,51,0.00,,SKC,0.00,WeatherDisplay:10.37,2013-09-06 22:28:00,
2013-09-06 17:33:00,91.6,70.9,29.85,SE,130,9.2,9.2,51,0.00,,SKC,0.00,WeatherDisplay:10.37,2013-09-06 22:33:00,
2013-09-06 17:38:00,91.2,70.0,29.85,SE,135,13.8,13.8,50,0.00,,SKC,0.00,WeatherDisplay:10.37,2013-09-06 22:38:00,
2013-09-06 17:43:00,90.9,70.3,29.85,ESE,120,10.6,10.6,51,0.00,,SKC,0.00,WeatherDisplay:10.37,2013-09-06 22:43:00,
2013-09-06 17:48:00,91.0,70.4,29.85,SSW,196,9.2,9.2,51,0.00,,SKC,0.00,WeatherDisplay:10.37,2013-09-06 22:48:00,
2013-09-06 17:53:00,91.1,70.5,29.85,ESE,115,10.6,10.6,51,0.00,,SKC,0.00,WeatherDisplay:10.37,2013-09-06 22:53:00,
2013-09-06 17:58:00,91.1,69.9,29.85,SSE,167,11.7,11.7,50,0.00,,SKC,0.00,WeatherDisplay:10.37,2013-09-06 22:58:00,
2013-09-06 18:03:00,90.7,70.1,29.85,SE,143,10.6,10.6,51,0.00,,SKC,0.00,WeatherDisplay:10.37,2013-09-06 23:03:00,
2013-09-06 18:08:00,90.1,69.5,29.85,SE,134,11.7,11.7,51,0.00,,SKC,0.00,WeatherDisplay:10.37,2013-09-06 23:08:00,
2013-09-06 18:13:00,89.9,69.3,29.85,SE,128,10.6,10.6,51,0.00,,SKC,0.00,WeatherDisplay:10.37,2013-09-06 23:13:00,
2013-09-06 18:18:00,89.6,69.6,29.85,South,188,9.5,9.5,52,0.00,,SKC,0.00,WeatherDisplay:10.37,2013-09-06 23:18:00,
2013-09-06 18:23:00,89.6,69.6,29.85,South,191,8.1,8.1,52,0.00,,SKC,0.00,WeatherDisplay:10.37,2013-09-06 23:23:00,
2013-09-06 18:28:00,89.7,69.7,29.84,SE,133,8.5,8.5,52,0.00,,SKC,0.00,WeatherDisplay:10.37,2013-09-06 23:28:00,
2013-09-06 18:33:00,89.5,70.1,29.84,ESE,113,6.9,6.9,53,0.00,,SKC,0.00,WeatherDisplay:10.37,2013-09-06 23:33:00,
2013-09-06 18:38:00,88.9,70.1,29.84,SE,125,7.4,7.4,54,0.00,,SKC,0.00,WeatherDisplay:10.37,2013-09-06 23:38:00,
2013-09-06 18:43:00,88.2,70.5,29.84,South,169,8.5,8.5,56,0.00,,SKC,0.00,WeatherDisplay:10.37,2013-09-06 23:43:00,
2013-09-06 18:48:00,87.4,70.8,29.84,SE,145,6.9,6.9,58,0.00,,SKC,0.00,WeatherDisplay:10.37,2013-09-06 23:48:00,
2013-09-06 18:53:00,86.8,71.2,29.84,SE,124,8.5,8.5,60,0.00,,SKC,0.00,WeatherDisplay:10.37,2013-09-06 23:53:00,
2013-09-06 18:58:00,86.2,71.2,29.84,SE,131,8.5,8.5,61,0.00,,SKC,0.00,WeatherDisplay:10.37,2013-09-06 23:58:00,
2013-09-06 19:04:00,85.6,71.6,29.84,SE,126,6.9,6.9,63,0.00,,SKC,0.00,WeatherDisplay:10.37,2013-09-07 00:04:00,
2013-09-06 19:09:00,85.0,71.5,29.84,ESE,113,10.4,10.4,64,0.00,,SKC,0.00,WeatherDisplay:10.37,2013-09-07 00:09:00,
2013-09-06 19:14:00,84.7,71.2,29.84,SSE,160,8.5,8.5,64,0.00,,SKC,0.00,WeatherDisplay:10.37,2013-09-07 00:14:00,
2013-09-06 19:19:00,84.2,71.2,29.83,SE,124,11.7,11.7,65,0.00,,SKC,0.00,WeatherDisplay:10.37,2013-09-07 00:19:00,
2013-09-06 19:24:00,83.8,70.8,29.83,SE,136,7.4,7.4,65,0.00,,SKC,0.00,WeatherDisplay:10.37,2013-09-07 00:24:00,
2013-09-06 19:29:00,83.4,70.8,29.83,SE,125,12.7,12.7,66,0.00,,SKC,0.00,WeatherDisplay:10.37,2013-09-07 00:29:00,
2013-09-06 19:34:00,83.1,70.6,29.83,ESE,108,12.7,12.7,66,0.00,,SKC,0.00,WeatherDisplay:10.37,2013-09-07 00:34:00,
2013-09-06 19:39:00,82.8,70.7,29.83,SE,128,7.4,7.4,67,0.00,,SKC,0.00,WeatherDisplay:10.37,2013-09-07 00:39:00,
2013-09-06 19:44:00,82.4,70.8,29.83,SE,124,8.5,8.5,68,0.00,,SKC,0.00,WeatherDisplay:10.37,2013-09-07 00:44:00,
2013-09-06 19:49:00,82.1,70.5,29.83,SE,127,6.9,6.9,68,0.00,,SKC,0.00,WeatherDisplay:10.37,2013-09-07 00:49:00,
2013-09-06 19:54:00,81.7,70.5,29.83,SSE,167,7.4,7.4,69,0.00,,SKC,0.00,WeatherDisplay:10.37,2013-09-07 00:54:00,
2013-09-06 19:59:00,81.5,70.3,29.83,SE,136,9.2,9.2,69,0.00,,SKC,0.00,WeatherDisplay:10.37,2013-09-07 00:59:00,
2013-09-06 20:04:00,81.2,70.5,29.83,ESE,112,6.9,6.9,70,0.00,,SKC,0.00,WeatherDisplay:10.37,2013-09-07 01:04:00,
2013-09-06 20:09:00,80.9,70.2,29.83,SE,134,7.4,7.4,70,0.00,,SKC,0.00,WeatherDisplay:10.37,2013-09-07 01:09:00,
2013-09-06 20:14:00,80.7,70.4,29.83,SE,128,8.5,8.5,71,0.00,,SKC,0.00,WeatherDisplay:10.37,2013-09-07 01:14:00,
2013-09-06 20:19:00,80.5,70.2,29.83,ESE,116,6.4,6.4,71,0.00,,SKC,0.00,WeatherDisplay:10.37,2013-09-07 01:19:00,
2013-09-06 20:24:00,80.3,70.0,29.83,SSE,152,7.4,7.4,71,0.00,,SKC,0.00,WeatherDisplay:10.37,2013-09-07 01:24:00,
2013-09-06 20:29:00,80.2,69.9,29.83,SSE,163,8.5,8.5,71,0.00,,SKC,0.00,WeatherDisplay:10.37,2013-09-07 01:29:00,
2013-09-06 20:34:00,80.1,69.8,29.83,SE,133,8.5,8.5,71,0.00,,SKC,0.00,WeatherDisplay:10.37,2013-09-07 01:34:00,
2013-09-06 20:39:00,80.0,69.7,29.83,SE,141,7.4,7.4,71,0.00,,SKC,0.00,WeatherDisplay:10.37,2013-09-07 01:39:00,
2013-09-06 20:44:00,79.9,69.7,29.83,ESE,118,8.5,8.5,71,0.00,,SKC,0.00,WeatherDisplay:10.37,2013-09-07 01:44:00,
2013-09-06 20:49:00,79.7,69.9,29.83,South,169,6.9,6.9,72,0.00,,SKC,0.00,WeatherDisplay:10.37,2013-09-07 01:49:00,
2013-09-06 20:54:00,79.7,69.9,29.83,SE,135,9.2,9.2,72,0.00,,SKC,0.00,WeatherDisplay:10.37,2013-09-07 01:54:00,
2013-09-06 20:59:00,79.6,69.8,29.83,SE,126,7.4,7.4,72,0.00,,SKC,0.00,WeatherDisplay:10.37,2013-09-07 01:59:00,
2013-09-06 21:04:00,79.4,69.6,29.83,SSE,158,5.8,5.8,72,0.00,,SKC,0.00,WeatherDisplay:10.37,2013-09-07 02:04:00,
2013-09-06 21:09:00,79.2,69.4,29.83,SSE,163,6.9,6.9,72,0.00,,SKC,0.00,WeatherDisplay:10.37,2013-09-07 02:09:00,
2013-09-06 21:14:00,79.0,69.2,29.83,SE,139,6.9,6.9,72,0.00,,SKC,0.00,WeatherDisplay:10.37,2013-09-07 02:14:00,
2013-09-06 21:19:00,79.0,69.6,29.83,SSE,158,5.3,5.3,73,0.00,,SKC,0.00,WeatherDisplay:10.37,2013-09-07 02:19:00,
2013-09-06 21:24:00,78.8,69.4,29.83,SE,139,7.4,7.4,73,0.00,,SKC,0.00,WeatherDisplay:10.37,2013-09-07 02:24:00,
2013-09-06 22:30:00,78.5,69.1,29.83,SE,139,3.0,7.0,73,0.00,CLR,SKC,0.00,WeatherDisplay:10.37,2013-09-07 03:30:00,
2013-09-06 22:45:00,77.9,68.9,29.84,SE,137,0.0,6.0,74,0.00,CLR,SKC,0.00,WeatherDisplay:10.37,2013-09-07 03:45:00,
2013-09-06 23:00:00,77.4,68.9,29.83,SE,137,3.0,5.0,75,0.00,CLR,SKC,0.00,WeatherDisplay:10.37,2013-09-07 04:00:00,
2013-09-06 23:15:00,77.3,68.8,29.84,SE,135,3.0,6.0,75,0.00,CLR,SKC,0.00,WeatherDisplay:10.37,2013-09-07 04:15:00,
2013-09-06 23:30:00,77.1,68.6,29.83,SE,139,2.0,5.0,75,0.00,CLR,SKC,0.00,WeatherDisplay:10.37,2013-09-07 04:30:00,
2013-09-06 23:45:00,76.8,68.7,29.84,SE,140,2.0,6.0,76,0.00,CLR,SKC,0.00,WeatherDisplay:10.37,2013-09-07 04:45:00,